Durango, CO

11:54 AM MDT on June 27, 2017 (GMT -0600)
Durango-La Plata County

Weather History for KDRO - July, 2013

Change the Weather History Date:

Thursday, July 18, 2013

  Actual Average Record
Temperature  
Mean Temperature 70 °F 69 °F  
Max Temperature 85 °F 86 °F 100 °F (1989)
Min Temperature 55 °F 52 °F 39 °F (1987)
Degree Days  
Heating Degree Days 0 0  
Month to date heating degree days 0 8  
Since 1 June heating degree days 40 123  
Since 1 July heating degree days 0 8  
Cooling Degree Days 5 4  
Month to date cooling degree days 117 61  
Year to date cooling degree days 172 90  
Since 1 June cooling degree days 172 89  
Growing Degree Days 18 (Base 50)    
Moisture  
Dew Point 49 °F    
Average Humidity 56    
Maximum Humidity 83    
Minimum Humidity 28    
Precipitation  
Precipitation T in 0.05 in 0.67 in (1985)
Month to date precipitation 0.97 0.76  
Year to date precipitation 4.74 6.83  
Sea Level Pressure  
Sea Level Pressure 30.05 in    
Wind  
Wind Speed 4 mph (NE)    
Max Wind Speed 16 mph    
Max Gust Speed 22 mph    
Visibility 10 miles    
Events      
T = Trace of Precipitation, MM = Missing Value Source: NWS Daily Summary

Daily Weather History Graph

Daily Weather History Graph

Search for Another Location

Airport or City:

Trip Planner

Search our weather history database for the weather conditions in past years. The results will help you decide how hot, cold, wet, or windy it might be!

Date:

Astronomy

Jul. 18, 2013 Rise Set
Actual Time 6:05 AM MDT 8:29 PM MDT
Civil Twilight 5:35 AM MDT 8:58 PM MDT
Nautical Twilight 4:58 AM MDT 9:35 PM MDT
Astronomical Twilight 4:17 AM MDT 10:15 PM MDT
Moon 4:29 PM MDT (7/18) 1:56 AM MDT (7/18)
Length of Visible Light 15h 23m
Length of Day
14h 23m
Waxing Gibbous, 78% of the Moon is Illuminated
Jul 18
Waxing Gibbous
Jul 22
Full
Jul 29
Last Quarter
Aug 6
New
Aug 14
First Quarter

Hourly Weather History & Observations

Time (MDT) Temp. Dew Point Humidity Pressure Visibility Wind Dir Wind Speed Gust Speed Precip Events Conditions
12:53 AM 64.9 °F 53.1 °F 65% 30.14 in 10.0 mi ENE 3.5 mph - N/A   Overcast
1:53 AM 64.0 °F 50.0 °F 60% 30.14 in 10.0 mi ENE 4.6 mph - N/A   Overcast
2:53 AM 61.0 °F 50.0 °F 67% 30.12 in 10.0 mi East 3.5 mph - N/A   Clear
3:53 AM 59.0 °F 51.1 °F 75% 30.12 in 10.0 mi NE 4.6 mph - N/A   Clear
4:53 AM 57.9 °F 50.0 °F 75% 30.12 in 10.0 mi East 3.5 mph - N/A   Clear
5:53 AM 55.0 °F 50.0 °F 83% 30.13 in 10.0 mi NE 3.5 mph - N/A   Clear
6:53 AM 57.9 °F 50.0 °F 75% 30.12 in 10.0 mi Calm Calm - N/A   Clear
7:53 AM 63.0 °F 50.0 °F 63% 30.13 in 10.0 mi ENE 3.5 mph - N/A   Clear
8:53 AM 66.0 °F 50.0 °F 56% 30.13 in 10.0 mi Variable 3.5 mph - N/A   Clear
9:53 AM 70.0 °F 51.1 °F 51% 30.09 in 10.0 mi Variable 3.5 mph - N/A   Clear
10:53 AM 72.0 °F 50.0 °F 46% 30.08 in 10.0 mi Calm Calm - N/A   Clear
11:53 AM 73.9 °F 51.1 °F 45% 30.06 in 10.0 mi WSW 6.9 mph - N/A   Clear
12:53 PM 77.0 °F 48.9 °F 37% 30.04 in 10.0 mi Calm Calm - N/A   Clear
1:53 PM 81.0 °F 48.9 °F 33% 29.99 in 10.0 mi West 8.1 mph - N/A   Clear
2:53 PM 82.0 °F 48.0 °F 30% 29.97 in 10.0 mi Variable 3.5 mph - N/A   Clear
3:53 PM 82.0 °F 46.9 °F 29% 29.96 in 10.0 mi Calm Calm - N/A   Mostly Cloudy
4:53 PM 81.0 °F 48.0 °F 31% 29.96 in 10.0 mi WNW 8.1 mph - N/A   Mostly Cloudy
5:53 PM 78.1 °F 48.9 °F 36% 29.97 in 10.0 mi North 11.5 mph - N/A   Clear
6:53 PM 75.9 °F 50.0 °F 40% 29.98 in 10.0 mi North 8.1 mph - N/A   Clear
7:53 PM 75.0 °F 46.9 °F 37% 29.96 in 10.0 mi ENE 8.1 mph - N/A   Scattered Clouds
8:53 PM 73.0 °F 45.0 °F 37% 29.98 in 10.0 mi NNE 8.1 mph - N/A   Scattered Clouds
9:53 PM 71.1 °F 46.9 °F 42% 29.99 in 10.0 mi Calm Calm - N/A   Mostly Cloudy
10:53 PM 70.0 °F 50.0 °F 49% 30.00 in 10.0 mi Calm Calm - N/A   Overcast
11:53 PM 68.0 °F 51.1 °F 55% 30.01 in 10.0 mi ENE 6.9 mph - N/A   Overcast